DW6120 Weather Reports


Display with metric or nautical units.
time (UTC)temp
F
wind
direction
speed
MPH
gust
MPH
rain 1hr
in
rain 24hr
in
rain mn
in
humidity
%
barometer
mb
20260502204605 70 238 4.0 17.0 0.00 0.00 0.00 20 1016.0
20260502203100 69 145 5.0 18.0 0.00 0.00 0.00 19 1016.3
20260502201553 69 250 6.0 17.0 0.00 0.00 0.00 20 1016.4
20260502200107 68 243 8.0 17.0 0.00 0.00 0.00 22 1016.4
20260502194604 68 230 7.0 15.0 0.00 0.00 0.00 22 1016.7
20260502193047 68 239 9.0 15.0 0.00 0.00 0.00 22 1016.9
20260502191546 67 244 10.0 18.0 0.00 0.00 0.00 22 1017.2
20260502190044 66 243 8.0 16.0 0.00 0.00 0.00 25 1017.5
20260502184541 67 229 10.0 15.0 0.00 0.00 0.00 25 1017.7
20260502183046 67 215 7.0 13.0 0.00 0.00 0.00 25 1017.9
20260502181536 65 275 5.0 18.0 0.00 0.00 0.00 23 1018.0
20260502163026 59 288 3.0 5.0 0.00 0.00 0.00 33 1019.0
20260502161524 61 175 1.0 4.0 0.00 0.00 0.00 30 1019.0
20260502151512 56 157 1.0 4.0 0.00 0.00 0.00 34 1019.2
20260502123059 46 93 6.0 8.0 0.00 0.00 0.00 42 1018.8
20260502121604 45 94 5.0 8.0 0.00 0.00 0.00 43 1018.8
20260502120113 45 80 3.0 8.0 0.00 0.00 0.00 44 1018.8
20260502114609 45 101 5.0 8.0 0.00 0.00 0.00 44 1018.8
20260502113113 46 107 6.0 8.0 0.00 0.00 0.00 44 1018.8
20260502111603 45 98 4.0 5.0 0.00 0.00 0.00 44 1018.9
20260502110104 45 76 3.0 8.0 0.00 0.00 0.00 44 1019.0
20260502104552 46 92 3.0 7.0 0.00 0.00 0.00 43 1019.1
20260502103111 47 146 2.0 7.0 0.00 0.00 0.00 42 1018.9
20260502101557 47 96 4.0 7.0 0.00 0.00 0.00 42 1018.8
20260502090107 47 94 6.0 9.0 0.00 0.00 0.00 43 1018.8
20260502070035 47 94 5.0 9.0 0.00 0.00 0.00 42 1019.4
20260502064537 47 83 5.0 8.0 0.00 0.00 0.00 43 1019.5
20260502063039 47 123 3.0 6.0 0.00 0.00 0.00 44 1019.4
20260502061529 47 73 5.0 10.0 0.00 0.00 0.00 44 1019.3
20260502060029 47 94 4.0 7.0 0.00 0.00 0.00 46 1019.2
20260502054538 47 95 5.0 8.0 0.00 0.00 0.00 47 1019.2
20260502053029 47 101 5.0 10.0 0.00 0.00 0.00 46 1019.1
20260502051526 47 94 6.0 9.0 0.00 0.00 0.00 47 1019.1
20260502050028 47 98 6.0 8.0 0.00 0.00 0.00 48 1019.1
20260502044528 48 90 4.0 7.0 0.00 0.00 0.00 50 1019.1
20260502043029 48 111 6.0 8.0 0.00 0.00 0.00 48 1019.1
20260502041532 49 145 2.0 4.0 0.00 0.00 0.00 48 1018.9
20260502040031 49 153 1.0 4.0 0.00 0.00 0.00 49 1018.7
20260502034529 50 115 3.0 6.0 0.00 0.00 0.00 47 1018.5
20260502033037 50 80 2.0 9.0 0.00 0.00 0.00 47 1018.3
20260502031528 50 88 2.0 4.0 0.00 0.00 0.00 47 1018.2
20260502030024 52 19 1.0 3.0 0.00 0.00 0.00 44 1018.1
20260502024522 53 360 2.0 6.0 0.00 0.00 0.00 43 1017.8
20260502023022 55 61 2.0 4.0 0.00 0.00 0.00 40 1017.7
20260502021521 57 349 1.0 3.0 0.00 0.00 0.00 36 1017.7
20260502020024 58 26 2.0 7.0 0.00 0.00 0.00 35 1017.7
20260502014524 58 309 4.0 8.0 0.00 0.00 0.00 34 1017.5
20260502013023 59 330 3.0 8.0 0.00 0.00 0.00 35 1017.4
20260502011523 59 286 5.0 9.0 0.00 0.00 0.00 35 1017.3
20260502010025 59 336 5.0 8.0 0.00 0.00 0.00 35 1017.3
20260502004523 59 324 6.0 11.0 0.00 0.00 0.00 35 1017.3
20260502003027 59 311 5.0 14.0 0.00 0.00 0.00 35 1017.3
20260502001525 60 5 5.0 12.0 0.00 0.00 0.00 34 1017.4
20260502000021 60 302 7.0 14.0 0.00 0.00 0.00 34 1017.4
20260501234520 59 24 5.0 11.0 0.00 0.00 0.00 33 1017.5
20260501233020 59 355 7.0 14.0 0.00 0.00 0.00 33 1017.6
20260501231519 60 313 6.0 12.0 0.00 0.00 0.00 33 1017.6
20260501230019 59 310 4.0 11.0 0.00 0.00 0.00 33 1017.6
20260501224521 59 268 6.0 15.0 0.00 0.00 0.00 31 1017.8
20260501223033 60 275 4.0 11.0 0.00 0.00 0.00 31 1017.8
20260501221518 60 21 0.0 10.0 0.00 0.00 0.00 30 1017.9
20260501220018 60 187 4.0 7.0 0.00 0.00 0.00 31 1017.9
20260501214527 59 315 4.0 9.0 0.00 0.00 0.00 31 1018.3
20260501213018 59 18 3.0 12.0 0.00 0.00 0.00 31 1018.5
20260501211517 59 13 6.0 16.0 0.00 0.00 0.00 31 1018.6
20260501210018 59 32 4.0 12.0 0.00 0.00 0.00 29 1018.7